Hourly Data Report for October 30, 2013

All times are specified in Local Standard Time (LST). Add 1 hour to adjust for Daylight Saving Time where and when it is observed.

OTTAWA INTL A
ONTARIO

45°19'00.000" N
75°40'00.000" W
114.90 m
6106001
71628
YOW

Related Data

No related data is available for this station

Download Data

Hourly Data (October 2013)
Hourly Data Report for October 30, 2013
Temp Definition
°C
Dew Point Temp Definition
°C
Rel Hum Definition
%
Wind Dir Definition
10's deg

Wind Spd Definition
km/h
Visibility Definition
km
Stn Press Definition
kPa
Hmdx Definition


Wind Chill Definition


Weather Definition


TIME
00:00 Legend Double Dagger -1.3 -5.0 76 18 8 24.1 101.16   -4 LegendNANA
01:00 Legend Double Dagger -0.9 -4.1 79 20 9 24.1 101.13   -4 Mostly Cloudy
02:00 Legend Double Dagger -0.8 -3.8 80 19 7 24.1 101.12   -3 LegendNANA
03:00 Legend Double Dagger -1.8 -4.0 85 16 3 24.1 101.06   -3 LegendNANA
04:00 Legend Double Dagger -0.1 -3.5 78 19 5 24.1 101.04   -2 Cloudy
05:00 Legend Double Dagger -0.2 -2.9 82 21 4 24.1 101.05   -1 Snow
06:00 Legend Double Dagger 0.2 -1.0 92 25 12 24.1 101.05     Snow
07:00 Legend Double Dagger -0.3 -0.9 96 24 7 24.1 101.05   -3 Cloudy
08:00 Legend Double Dagger 0.3 -0.4 95 22 3 24.1 101.10     LegendNANA
09:00 Legend Double Dagger 2.1 0.6 90 21 11 24.1 101.10     LegendNANA
10:00 Legend Double Dagger 2.8 0.7 86 26 14 24.1 101.09     Cloudy
11:00 Legend Double Dagger 4.2 0.2 75 26 15 24.1 101.07     LegendNANA
12:00 Legend Double Dagger 5.0 -0.6 67 28 14 24.1 101.00     LegendNANA
13:00 Legend Double Dagger 5.8 -1.4 60 25 16 24.1 100.93     Cloudy
14:00 Legend Double Dagger 5.8 -2.3 56 27 10 24.1 100.88     LegendNANA
15:00 Legend Double Dagger 6.2 -4.0 48 26 10 24.1 100.81     LegendNANA
16:00 Legend Double Dagger 5.6 -2.2 57 24 10 24.1 100.83     Mainly Clear
17:00 Legend Double Dagger 4.1 -1.7 66 24 6 24.1 100.87     LegendNANA
18:00 Legend Double Dagger 4.6 -1.4 65 16 6 24.1 100.88     LegendNANA
19:00 Legend Double Dagger 1.7 -1.9 77 18 6 24.1 100.86     Mainly Clear
20:00 Legend Double Dagger 2.4 -0.2 83 19 6 24.1 100.82     LegendNANA
21:00 Legend Double Dagger 1.9 0.3 89 18 8 24.1 100.80     LegendNANA
22:00 Legend Double Dagger 1.8 0.8 93 17 10 16.1 100.83     Mainly Clear
23:00 Legend Double Dagger 2.0 1.1 94 17 5 12.9 100.75     LegendNANA

Notes on Data Quality.

Legend

  • E = Estimated
  • M = Missing
  • NA = Not Available
  • ‡ = Partner data that is not subject to review by the National Climate Archives
Date modified: